Location: *
(42.3442°N, 9.2072°E)
Time: 00:28:34
(UTC+00:00)

Cosmos 2154 Rocket - Pass Details

Date: 09 April 2020
Orbit: 965 x 997 km, 82.9° (Epoch: 02 June)

Event Time Altitude Azimuth Distance (km) Brightness Sun altitude
Rises 19:24:21 0° 350° (N) 3,726 7.6 -15.8°
Reaches altitude 10° 19:26:54 10° 348° (NNW) 2,771 6.9 -16.2°
Maximum altitude 19:33:13 71° 266° (W) 1,048 4.3 -17.2°
Drops below altitude 10° 19:39:28 10° 184° (S) 2,736 6.1 -18.2°
Enters shadow 19:41:46 - 182° (S) 3,600 6.7 -18.6°
